Year,Month,Day,Hour,Minute,Value (Times are PST for temperature in C)
2010,05,22,00,00,5.80
2010,05,22,00,01,5.80
2010,05,22,00,02,5.70
2010,05,22,00,03,5.70
2010,05,22,00,04,5.70
2010,05,22,00,05,5.70
2010,05,22,00,06,5.70
2010,05,22,00,07,5.60
2010,05,22,00,08,5.60
2010,05,22,00,09,5.60
2010,05,22,00,10,5.60
2010,05,22,00,11,5.60
2010,05,22,00,12,5.60
2010,05,22,00,18,5.60
2010,05,22,00,19,5.50
2010,05,22,00,20,5.50
2010,05,22,00,21,5.50
2010,05,22,00,22,5.50
2010,05,22,00,23,5.40
2010,05,22,00,24,5.40
2010,05,22,00,25,5.40
2010,05,22,00,26,5.40
2010,05,22,00,27,5.30
2010,05,22,00,28,5.30
2010,05,22,00,29,5.30
2010,05,22,00,30,5.30
2010,05,22,00,31,5.30
2010,05,22,00,32,5.30
2010,05,22,00,33,5.20
2010,05,22,00,34,5.20
2010,05,22,00,35,5.20
2010,05,22,00,36,5.20
2010,05,22,00,37,5.20
2010,05,22,00,38,5.20
2010,05,22,00,39,5.10
2010,05,22,00,40,5.10
2010,05,22,00,41,5.10
2010,05,22,00,42,5.10
2010,05,22,00,43,5.10
2010,05,22,00,44,5.10
2010,05,22,00,45,5.10
2010,05,22,00,46,5.10
2010,05,22,00,47,5.10
2010,05,22,00,48,5.10
2010,05,22,00,49,5.10
2010,05,22,00,50,5.10
2010,05,22,00,51,5.10
2010,05,22,00,52,5.00
2010,05,22,00,53,5.00
2010,05,22,00,54,5.00
2010,05,22,00,55,4.90
2010,05,22,00,56,4.90
2010,05,22,00,57,4.90
2010,05,22,00,58,4.90
2010,05,22,00,59,4.90
2010,05,22,01,00,4.80
2010,05,22,01,01,4.80
2010,05,22,01,02,4.80
2010,05,22,01,03,4.80
2010,05,22,01,04,4.80
2010,05,22,01,05,4.80
2010,05,22,01,06,4.80
2010,05,22,01,07,4.80
2010,05,22,01,08,4.80
2010,05,22,01,09,4.80
2010,05,22,01,10,4.80
2010,05,22,01,11,4.80
2010,05,22,01,12,4.80
2010,05,22,01,13,4.80
2010,05,22,01,14,4.80
2010,05,22,01,15,4.80
2010,05,22,01,16,4.80
2010,05,22,01,17,4.80
2010,05,22,01,18,4.80
2010,05,22,01,19,4.80
2010,05,22,01,20,4.80
2010,05,22,01,21,4.80
2010,05,22,01,22,4.80
2010,05,22,01,23,4.80
2010,05,22,01,24,4.70
2010,05,22,01,25,4.70
2010,05,22,01,26,4.70
2010,05,22,01,27,4.70
2010,05,22,01,28,4.70
2010,05,22,01,29,4.70
2010,05,22,01,30,4.70
2010,05,22,01,31,4.70
2010,05,22,01,32,4.70
2010,05,22,01,33,4.70
2010,05,22,01,34,4.70
2010,05,22,01,35,4.70
2010,05,22,01,36,4.70
2010,05,22,01,37,4.60
2010,05,22,01,38,4.60
2010,05,22,01,39,4.60
2010,05,22,01,40,4.60
2010,05,22,01,41,4.60
2010,05,22,01,42,4.60
2010,05,22,01,43,4.50
2010,05,22,01,44,4.50
2010,05,22,01,45,4.50
2010,05,22,01,46,4.50
2010,05,22,01,47,4.50
2010,05,22,01,48,4.50
2010,05,22,01,49,4.40
2010,05,22,01,50,4.50
2010,05,22,01,51,4.50
2010,05,22,01,52,4.40
2010,05,22,01,53,4.40
2010,05,22,01,54,4.40
2010,05,22,01,55,4.40
2010,05,22,01,56,4.40
2010,05,22,01,57,4.40
2010,05,22,01,58,4.40
2010,05,22,01,59,4.40
2010,05,22,02,00,4.40
2010,05,22,02,01,4.40
2010,05,22,02,02,4.40
2010,05,22,02,03,4.30
2010,05,22,02,04,4.30
2010,05,22,02,05,4.30
2010,05,22,02,06,4.30
2010,05,22,02,07,4.30
2010,05,22,02,08,4.30
2010,05,22,02,09,4.30
2010,05,22,02,10,4.20
2010,05,22,02,11,4.20
2010,05,22,02,12,4.20
2010,05,22,02,13,4.20
2010,05,22,02,14,4.20
2010,05,22,02,15,4.20
2010,05,22,02,16,4.20
2010,05,22,02,17,4.20
2010,05,22,02,18,4.20
2010,05,22,02,19,4.10
2010,05,22,02,20,4.10
2010,05,22,02,21,4.10
2010,05,22,02,22,4.10
2010,05,22,02,23,4.10
2010,05,22,02,24,4.00
2010,05,22,02,25,4.00
2010,05,22,02,26,4.00
2010,05,22,02,27,4.00
2010,05,22,02,28,3.90
2010,05,22,02,29,3.90
2010,05,22,02,30,3.90
2010,05,22,02,31,3.90
2010,05,22,02,32,3.90
2010,05,22,02,33,3.90
2010,05,22,02,34,3.90
2010,05,22,02,35,3.90
2010,05,22,02,36,3.90
2010,05,22,02,37,3.90
2010,05,22,02,38,3.90
2010,05,22,02,39,3.90
2010,05,22,02,40,3.90
2010,05,22,02,41,3.90
2010,05,22,02,42,3.90
2010,05,22,02,43,3.90
2010,05,22,02,44,3.90
2010,05,22,02,45,3.90
2010,05,22,02,46,3.90
2010,05,22,02,47,3.90
2010,05,22,02,48,3.90
2010,05,22,02,49,3.90
2010,05,22,02,50,3.90
2010,05,22,02,51,3.90
2010,05,22,02,52,3.90
2010,05,22,02,53,3.90
2010,05,22,02,54,3.90
2010,05,22,02,55,3.90
2010,05,22,02,56,3.90
2010,05,22,02,57,3.90
2010,05,22,02,58,3.90
2010,05,22,02,59,3.90
2010,05,22,03,00,3.90
2010,05,22,03,01,3.90
2010,05,22,03,02,3.90
2010,05,22,03,03,3.90
2010,05,22,03,04,3.90
2010,05,22,03,05,3.90
2010,05,22,03,06,3.90
2010,05,22,03,07,3.90
2010,05,22,03,08,3.80
2010,05,22,03,09,3.80
2010,05,22,03,10,3.80
2010,05,22,03,11,3.80
2010,05,22,03,12,3.80
2010,05,22,03,13,3.80
2010,05,22,03,14,3.80
2010,05,22,03,15,3.80
2010,05,22,03,16,3.80
2010,05,22,03,17,3.80
2010,05,22,03,18,3.80
2010,05,22,03,19,3.80
2010,05,22,03,20,3.80
2010,05,22,03,21,3.80
2010,05,22,03,22,3.80
2010,05,22,03,23,3.70
2010,05,22,03,24,3.70
2010,05,22,03,25,3.70
2010,05,22,03,26,3.70
2010,05,22,03,27,3.80
2010,05,22,03,28,3.80
2010,05,22,03,29,3.80
2010,05,22,03,30,3.80
2010,05,22,03,31,3.80
2010,05,22,03,32,3.80
2010,05,22,03,33,3.80
2010,05,22,03,34,3.80
2010,05,22,03,35,3.80
2010,05,22,03,36,3.80
2010,05,22,03,37,3.80
2010,05,22,03,38,3.80
2010,05,22,03,39,3.80
2010,05,22,03,40,3.70
2010,05,22,03,41,3.70
2010,05,22,03,42,3.70
2010,05,22,03,43,3.70
2010,05,22,03,44,3.70
2010,05,22,03,45,3.70
2010,05,22,03,46,3.70
2010,05,22,03,47,3.70
2010,05,22,03,48,3.70
2010,05,22,03,49,3.70
2010,05,22,03,50,3.80
2010,05,22,03,51,3.80
2010,05,22,03,52,3.80
2010,05,22,03,53,3.80
2010,05,22,03,54,3.80
2010,05,22,03,55,3.80
2010,05,22,03,56,3.80
2010,05,22,03,57,3.80
2010,05,22,03,58,3.80
2010,05,22,03,59,3.80
2010,05,22,04,00,3.80
2010,05,22,04,01,3.80
2010,05,22,04,02,3.80
2010,05,22,04,03,3.80
2010,05,22,04,04,3.80
2010,05,22,04,05,3.80
2010,05,22,04,06,3.80
2010,05,22,04,07,3.80
2010,05,22,04,08,3.80
2010,05,22,04,09,3.80
2010,05,22,04,10,3.80
2010,05,22,04,11,3.80
2010,05,22,04,12,3.80
2010,05,22,04,13,3.80
2010,05,22,04,14,3.80
2010,05,22,04,15,3.80
2010,05,22,04,16,3.80
2010,05,22,04,17,3.80
2010,05,22,04,18,3.80
2010,05,22,04,19,3.70
2010,05,22,04,20,3.70
2010,05,22,04,21,3.70
2010,05,22,04,22,3.70
2010,05,22,04,23,3.70
2010,05,22,04,24,3.70
2010,05,22,04,25,3.70
2010,05,22,04,26,3.70
2010,05,22,04,27,3.70
2010,05,22,04,28,3.70
2010,05,22,04,29,3.70
2010,05,22,04,30,3.70
2010,05,22,04,31,3.70
2010,05,22,04,32,3.70
2010,05,22,04,33,3.70
2010,05,22,04,34,3.70
2010,05,22,04,35,3.60
2010,05,22,04,36,3.60
2010,05,22,04,37,3.60
2010,05,22,04,38,3.60
2010,05,22,04,39,3.60
2010,05,22,04,40,3.60
2010,05,22,04,41,3.60
2010,05,22,04,42,3.60
2010,05,22,04,43,3.60
2010,05,22,04,44,3.60
2010,05,22,04,45,3.50
2010,05,22,04,46,3.50
2010,05,22,04,47,3.50
2010,05,22,04,48,3.40
2010,05,22,04,49,3.40
2010,05,22,04,50,3.40
2010,05,22,04,51,3.40
2010,05,22,04,52,3.30
2010,05,22,04,53,3.30
2010,05,22,04,54,3.30
2010,05,22,04,55,3.30
2010,05,22,04,56,3.30
2010,05,22,04,57,3.30
2010,05,22,04,58,3.30
2010,05,22,04,59,3.30
2010,05,22,05,00,3.30
2010,05,22,05,01,3.30
2010,05,22,05,02,3.30
2010,05,22,05,03,3.30
2010,05,22,05,04,3.30
2010,05,22,05,05,3.20
2010,05,22,05,06,3.20
2010,05,22,05,07,3.20
2010,05,22,05,08,3.20
2010,05,22,05,09,3.20
2010,05,22,05,10,3.20
2010,05,22,05,11,3.20
2010,05,22,05,12,3.20
2010,05,22,05,13,3.20
2010,05,22,05,14,3.20
2010,05,22,05,15,3.20
2010,05,22,05,16,3.20
2010,05,22,05,17,3.20
2010,05,22,05,18,3.20
2010,05,22,05,19,3.20
2010,05,22,05,20,3.20
2010,05,22,05,21,3.30
2010,05,22,05,22,3.30
2010,05,22,05,23,3.20
2010,05,22,05,24,3.20
2010,05,22,05,25,3.20
2010,05,22,05,26,3.20
2010,05,22,05,27,3.20
2010,05,22,05,28,3.20
2010,05,22,05,29,3.20
2010,05,22,05,30,3.20
2010,05,22,05,31,3.20
2010,05,22,05,32,3.20
2010,05,22,05,33,3.20
2010,05,22,05,34,3.20
2010,05,22,05,35,3.20
2010,05,22,05,36,3.10
2010,05,22,05,37,3.10
2010,05,22,05,38,3.10
2010,05,22,05,39,3.10
2010,05,22,05,40,3.10
2010,05,22,05,41,3.10
2010,05,22,05,42,3.10
2010,05,22,05,43,3.10
2010,05,22,05,44,3.10
2010,05,22,05,45,3.10
2010,05,22,05,46,3.10
2010,05,22,05,47,3.10
2010,05,22,05,48,3.10
2010,05,22,05,49,3.10
2010,05,22,05,50,3.10
2010,05,22,05,51,3.00
2010,05,22,05,52,3.00
2010,05,22,05,53,3.00
2010,05,22,05,54,3.00
2010,05,22,05,55,3.00
2010,05,22,05,56,3.00
2010,05,22,05,57,3.00
2010,05,22,05,58,3.00
2010,05,22,05,59,3.00
2010,05,22,06,00,3.00
2010,05,22,06,01,3.00
2010,05,22,06,02,3.00
2010,05,22,06,03,3.10
2010,05,22,06,04,3.10
2010,05,22,06,05,3.10
2010,05,22,06,06,3.10
2010,05,22,06,07,3.10
2010,05,22,06,08,3.10
2010,05,22,06,09,3.20
2010,05,22,06,10,3.20
2010,05,22,06,11,3.20
2010,05,22,06,12,3.20
2010,05,22,06,13,3.20
2010,05,22,06,14,3.20
2010,05,22,06,15,3.20
2010,05,22,06,16,3.20
2010,05,22,06,17,3.30
2010,05,22,06,18,3.30
2010,05,22,06,19,3.30
2010,05,22,06,20,3.30
2010,05,22,06,21,3.30
2010,05,22,06,22,3.30
2010,05,22,06,23,3.30
2010,05,22,06,24,3.30
2010,05,22,06,25,3.30
2010,05,22,06,26,3.30
2010,05,22,06,27,3.30
2010,05,22,06,28,3.40
2010,05,22,06,29,3.40
2010,05,22,06,30,3.40
2010,05,22,06,31,3.40
2010,05,22,06,32,3.50
2010,05,22,06,33,3.50
2010,05,22,06,34,3.50
2010,05,22,06,35,3.50
2010,05,22,06,36,3.50
2010,05,22,06,37,3.60
2010,05,22,06,38,3.60
2010,05,22,06,39,3.60
2010,05,22,06,40,3.60
2010,05,22,06,41,3.70
2010,05,22,06,42,3.70
2010,05,22,06,43,3.70
2010,05,22,06,44,3.70
2010,05,22,06,45,3.70
2010,05,22,06,46,3.70
2010,05,22,06,47,3.80
2010,05,22,06,48,3.80
2010,05,22,06,49,3.80
2010,05,22,06,50,3.90
2010,05,22,06,51,3.90
2010,05,22,06,52,4.00
2010,05,22,06,53,4.00
2010,05,22,06,54,4.10
2010,05,22,06,55,4.10
2010,05,22,06,56,4.10
2010,05,22,06,57,4.10
2010,05,22,06,58,4.10
2010,05,22,06,59,4.20
2010,05,22,07,00,4.20
2010,05,22,07,01,4.30
2010,05,22,07,02,4.30
2010,05,22,07,03,4.40
2010,05,22,07,04,4.40
2010,05,22,07,05,4.50
2010,05,22,07,06,4.50
2010,05,22,07,07,4.60
2010,05,22,07,08,4.70
2010,05,22,07,09,4.70
2010,05,22,07,10,4.80
2010,05,22,07,11,4.80
2010,05,22,07,12,4.90
2010,05,22,07,13,5.00
2010,05,22,07,14,5.10
2010,05,22,07,15,5.20
2010,05,22,07,16,5.40
2010,05,22,07,17,5.40
2010,05,22,07,18,5.50
2010,05,22,07,19,5.60
2010,05,22,07,20,5.70
2010,05,22,07,21,5.70
2010,05,22,07,22,5.80
2010,05,22,07,23,5.90
2010,05,22,07,24,5.90
2010,05,22,07,25,6.00
2010,05,22,07,26,6.10
2010,05,22,07,27,6.30
2010,05,22,07,28,6.40
2010,05,22,07,29,6.50
2010,05,22,07,30,6.50
2010,05,22,07,31,6.60
2010,05,22,07,32,6.70
2010,05,22,07,33,6.80
2010,05,22,07,34,6.80
2010,05,22,07,35,6.90
2010,05,22,07,36,7.00
2010,05,22,07,37,7.10
2010,05,22,07,38,7.10
2010,05,22,07,39,7.10
2010,05,22,07,40,7.20
2010,05,22,07,41,7.20
2010,05,22,07,42,7.30
2010,05,22,07,43,7.40
2010,05,22,07,44,7.50
2010,05,22,07,45,7.50
2010,05,22,07,46,7.60
2010,05,22,07,47,7.80
2010,05,22,07,48,7.80
2010,05,22,07,49,7.90
2010,05,22,07,50,7.90
2010,05,22,07,51,7.90
2010,05,22,07,52,8.00
2010,05,22,07,53,8.10
2010,05,22,07,54,8.20
2010,05,22,07,55,8.30
2010,05,22,07,56,8.40
2010,05,22,07,57,8.50
2010,05,22,07,58,8.60
2010,05,22,07,59,8.70
2010,05,22,08,00,8.80
2010,05,22,08,01,8.80
2010,05,22,08,02,8.90
2010,05,22,08,03,9.00
2010,05,22,08,04,9.10
2010,05,22,08,05,9.20
2010,05,22,08,06,9.20
2010,05,22,08,07,9.30
2010,05,22,08,08,9.40
2010,05,22,08,09,9.50
2010,05,22,08,10,9.60
2010,05,22,08,11,9.70
2010,05,22,08,12,9.70
2010,05,22,08,13,9.80
2010,05,22,08,14,9.80
2010,05,22,08,15,9.90
2010,05,22,08,16,10.00
2010,05,22,08,17,10.10
2010,05,22,08,18,10.10
2010,05,22,08,19,10.20
2010,05,22,08,20,10.20
2010,05,22,08,21,10.20
2010,05,22,08,22,10.20
2010,05,22,08,23,10.30
2010,05,22,08,24,10.30
2010,05,22,08,25,10.40
2010,05,22,08,26,10.40
2010,05,22,08,27,10.50
2010,05,22,08,28,10.50
2010,05,22,08,29,10.50
2010,05,22,08,30,10.50
2010,05,22,08,31,10.40
2010,05,22,08,32,10.40
2010,05,22,08,33,10.40
2010,05,22,08,34,10.40
2010,05,22,08,35,10.40
2010,05,22,08,36,10.40
2010,05,22,08,37,10.40
2010,05,22,08,38,10.40
2010,05,22,08,39,10.40
2010,05,22,08,40,10.50
2010,05,22,08,41,10.50
2010,05,22,08,42,10.60
2010,05,22,08,43,10.60
2010,05,22,08,44,10.70
2010,05,22,08,45,10.70
2010,05,22,08,46,10.80
2010,05,22,08,47,10.80
2010,05,22,08,48,10.90
2010,05,22,08,49,11.00
2010,05,22,08,50,11.10
2010,05,22,08,51,11.10
2010,05,22,08,52,11.10
2010,05,22,08,53,11.20
2010,05,22,08,54,11.20
2010,05,22,08,55,11.30
2010,05,22,08,56,11.30
2010,05,22,08,57,11.40
2010,05,22,08,58,11.40
2010,05,22,08,59,11.50
2010,05,22,09,00,11.60
2010,05,22,09,01,11.60
2010,05,22,09,02,11.60
2010,05,22,09,03,11.70
2010,05,22,09,04,11.60
2010,05,22,09,05,11.70
2010,05,22,09,06,11.70
2010,05,22,09,07,11.70
2010,05,22,09,08,11.70
2010,05,22,09,09,11.70
2010,05,22,09,10,11.70
2010,05,22,09,11,11.70
2010,05,22,09,12,11.70
2010,05,22,09,13,11.80
2010,05,22,09,14,11.80
2010,05,22,09,15,11.80
2010,05,22,09,16,11.80
2010,05,22,09,17,11.80
2010,05,22,09,18,11.90
2010,05,22,09,19,11.90
2010,05,22,09,20,12.00
2010,05,22,09,21,12.00
2010,05,22,09,22,12.10
2010,05,22,09,23,12.10
2010,05,22,09,24,12.10
2010,05,22,09,25,12.20
2010,05,22,09,26,12.30
2010,05,22,09,27,12.30
2010,05,22,09,28,12.30
2010,05,22,09,29,12.40
2010,05,22,09,30,12.30
2010,05,22,09,31,12.30
2010,05,22,09,32,12.20
2010,05,22,09,33,12.10
2010,05,22,09,34,12.10
2010,05,22,09,35,12.10
2010,05,22,09,36,12.20
2010,05,22,09,37,12.20
2010,05,22,09,38,12.30
2010,05,22,09,39,12.40
2010,05,22,09,40,12.40
2010,05,22,09,41,12.40
2010,05,22,09,42,12.40
2010,05,22,09,43,12.50
2010,05,22,09,44,12.50
2010,05,22,09,45,12.50
2010,05,22,09,46,12.50
2010,05,22,09,47,12.40
2010,05,22,09,48,12.40
2010,05,22,09,49,12.50
2010,05,22,09,50,12.50
2010,05,22,09,51,12.40
2010,05,22,09,52,12.40
2010,05,22,09,53,12.30
2010,05,22,09,54,12.30
2010,05,22,09,55,12.30
2010,05,22,09,56,12.20
2010,05,22,09,57,12.20
2010,05,22,09,58,12.30
2010,05,22,09,59,12.30
2010,05,22,10,00,12.30
2010,05,22,10,01,12.30
2010,05,22,10,02,12.30
2010,05,22,10,03,12.30
2010,05,22,10,04,12.50
2010,05,22,10,05,12.50
2010,05,22,10,06,12.30
2010,05,22,10,07,12.30
2010,05,22,10,08,12.30
2010,05,22,10,09,12.30
2010,05,22,10,10,12.40
2010,05,22,10,11,12.50
2010,05,22,10,12,12.50
2010,05,22,10,13,12.50
2010,05,22,10,14,12.70
2010,05,22,10,15,12.70
2010,05,22,10,16,12.70
2010,05,22,10,17,12.80
2010,05,22,10,18,12.80
2010,05,22,10,19,12.90
2010,05,22,10,20,13.00
2010,05,22,10,21,13.10
2010,05,22,10,22,13.10
2010,05,22,10,23,13.10
2010,05,22,10,24,13.20
2010,05,22,10,25,13.20
2010,05,22,10,26,13.10
2010,05,22,10,27,13.00
2010,05,22,10,28,12.90
2010,05,22,10,29,12.90
2010,05,22,10,30,13.00
2010,05,22,10,31,13.10
2010,05,22,10,32,13.10
2010,05,22,10,33,13.00
2010,05,22,10,34,12.90
2010,05,22,10,35,12.90
2010,05,22,10,36,12.90
2010,05,22,10,37,12.90
2010,05,22,10,38,12.80
2010,05,22,10,39,12.80
2010,05,22,10,40,12.80
2010,05,22,10,41,12.90
2010,05,22,10,42,12.80
2010,05,22,10,43,12.80
2010,05,22,10,44,12.80
2010,05,22,10,45,12.70
2010,05,22,10,46,12.70
2010,05,22,10,47,12.70
2010,05,22,10,48,12.80
2010,05,22,10,49,12.80
2010,05,22,10,50,12.80
2010,05,22,10,51,12.80
2010,05,22,10,52,12.90
2010,05,22,10,53,12.90
2010,05,22,10,54,12.90
2010,05,22,10,55,12.90
2010,05,22,10,56,12.90
2010,05,22,10,57,12.90
2010,05,22,10,58,12.90
2010,05,22,10,59,12.90
2010,05,22,11,00,12.90
2010,05,22,11,01,12.90
2010,05,22,11,02,12.90
2010,05,22,11,03,12.90
2010,05,22,11,04,12.90
2010,05,22,11,05,12.80
2010,05,22,11,06,12.90
2010,05,22,11,07,13.00
2010,05,22,11,08,13.00
2010,05,22,11,09,12.90
2010,05,22,11,10,12.90
2010,05,22,11,11,12.90
2010,05,22,11,12,13.10
2010,05,22,11,13,13.20
2010,05,22,11,14,13.40
2010,05,22,11,15,13.50
2010,05,22,11,16,13.50
2010,05,22,11,17,13.60
2010,05,22,11,18,13.60
2010,05,22,11,19,13.50
2010,05,22,11,20,13.40
2010,05,22,11,21,13.40
2010,05,22,11,22,13.40
2010,05,22,11,23,13.40
2010,05,22,11,24,13.30
2010,05,22,11,25,13.40
2010,05,22,11,26,13.40
2010,05,22,11,27,13.50
2010,05,22,11,28,13.70
2010,05,22,11,29,13.70
2010,05,22,11,30,13.80
2010,05,22,11,31,13.90
2010,05,22,11,32,14.00
2010,05,22,11,33,14.10
2010,05,22,11,34,14.20
2010,05,22,11,35,14.20
2010,05,22,11,36,14.20
2010,05,22,11,37,14.20
2010,05,22,11,38,14.30
2010,05,22,11,39,14.40
2010,05,22,11,40,14.40
2010,05,22,11,41,14.40
2010,05,22,11,42,14.40
2010,05,22,11,43,14.40
2010,05,22,11,44,14.30
2010,05,22,11,45,14.20
2010,05,22,11,46,14.20
2010,05,22,11,47,14.20
2010,05,22,11,48,14.10
2010,05,22,11,49,14.10
2010,05,22,11,50,14.10
2010,05,22,11,51,14.10
2010,05,22,11,52,14.10
2010,05,22,11,53,14.10
2010,05,22,11,54,14.10
2010,05,22,11,55,14.00
2010,05,22,11,56,14.10
2010,05,22,11,57,14.10
2010,05,22,11,58,14.10
2010,05,22,11,59,14.20
2010,05,22,12,00,14.20
2010,05,22,12,01,14.20
2010,05,22,12,02,14.30
2010,05,22,12,03,14.50
2010,05,22,12,04,14.60
2010,05,22,12,05,14.70
2010,05,22,12,06,14.80
2010,05,22,12,07,14.80
2010,05,22,12,08,14.70
2010,05,22,12,09,14.70
2010,05,22,12,10,14.60
2010,05,22,12,11,14.60
2010,05,22,12,12,14.50
2010,05,22,12,13,14.40
2010,05,22,12,14,14.40
2010,05,22,12,15,14.30
2010,05,22,12,16,14.20
2010,05,22,12,17,14.20
2010,05,22,12,18,14.10
2010,05,22,12,19,14.10
2010,05,22,12,20,14.20
2010,05,22,12,21,14.20
2010,05,22,12,22,14.20
2010,05,22,12,23,14.20
2010,05,22,12,24,14.30
2010,05,22,12,25,14.20
2010,05,22,12,26,14.30
2010,05,22,12,27,14.30
2010,05,22,12,28,14.30
2010,05,22,12,29,14.30
2010,05,22,12,30,14.20
2010,05,22,12,31,14.20
2010,05,22,12,32,14.20
2010,05,22,12,33,14.20
2010,05,22,12,34,14.20
2010,05,22,12,35,14.20
2010,05,22,12,36,14.20
2010,05,22,12,37,14.30
2010,05,22,12,38,14.40
2010,05,22,12,39,14.50
2010,05,22,12,40,14.70
2010,05,22,12,41,14.80
2010,05,22,12,42,14.80
2010,05,22,12,43,14.70
2010,05,22,12,44,14.70
2010,05,22,12,45,14.80
2010,05,22,12,46,14.90
2010,05,22,12,47,15.00
2010,05,22,12,48,15.00
2010,05,22,12,49,15.00
2010,05,22,12,50,15.00
2010,05,22,12,51,15.00
2010,05,22,12,52,15.00
2010,05,22,12,53,15.00
2010,05,22,12,54,14.90
2010,05,22,12,55,15.00
2010,05,22,12,56,15.00
2010,05,22,12,57,14.90
2010,05,22,12,58,15.00
2010,05,22,12,59,15.00
2010,05,22,13,00,15.00
2010,05,22,13,01,15.00
2010,05,22,13,02,15.00
2010,05,22,13,03,15.00
2010,05,22,13,04,15.00
2010,05,22,13,05,15.00
2010,05,22,13,06,15.00
2010,05,22,13,07,15.00
2010,05,22,13,08,15.00
2010,05,22,13,09,15.00
2010,05,22,13,10,15.00
2010,05,22,13,11,15.00
2010,05,22,13,12,15.00
2010,05,22,13,13,15.00
2010,05,22,13,14,15.00
2010,05,22,13,15,15.10
2010,05,22,13,16,15.20
2010,05,22,13,17,15.30
2010,05,22,13,18,15.30
2010,05,22,13,19,15.30
2010,05,22,13,20,15.30
2010,05,22,13,21,15.40
2010,05,22,13,22,15.40
2010,05,22,13,23,15.40
2010,05,22,13,24,15.30
2010,05,22,13,25,15.20
2010,05,22,13,26,15.20
2010,05,22,13,27,15.30
2010,05,22,13,28,15.30
2010,05,22,13,29,15.40
2010,05,22,13,30,15.50
2010,05,22,13,31,15.50
2010,05,22,13,32,15.50
2010,05,22,13,33,15.60
2010,05,22,13,34,15.70
2010,05,22,13,35,15.80
2010,05,22,13,36,15.80
2010,05,22,13,37,15.90
2010,05,22,13,38,15.90
2010,05,22,13,39,15.90
2010,05,22,13,40,15.80
2010,05,22,13,41,15.80
2010,05,22,13,42,15.70
2010,05,22,13,43,15.60
2010,05,22,13,44,15.60
2010,05,22,13,45,15.50
2010,05,22,13,46,15.50
2010,05,22,13,47,15.30
2010,05,22,13,48,15.30
2010,05,22,13,49,15.20
2010,05,22,13,50,15.20
2010,05,22,13,51,15.30
2010,05,22,13,52,15.30
2010,05,22,13,53,15.30
2010,05,22,13,54,15.30
2010,05,22,13,55,15.20
2010,05,22,13,56,15.10
2010,05,22,13,57,15.00
2010,05,22,13,58,15.00
2010,05,22,13,59,15.00
2010,05,22,14,00,15.10
2010,05,22,14,01,15.10
2010,05,22,14,02,15.00
2010,05,22,14,03,15.10
2010,05,22,14,04,15.10
2010,05,22,14,05,15.20
2010,05,22,14,06,15.10
2010,05,22,14,07,15.20
2010,05,22,14,08,15.30
2010,05,22,14,09,15.30
2010,05,22,14,10,15.30
2010,05,22,14,11,15.20
2010,05,22,14,12,15.10
2010,05,22,14,13,15.10
2010,05,22,14,14,15.20
2010,05,22,14,15,15.20
2010,05,22,14,16,15.20
2010,05,22,14,17,15.10
2010,05,22,14,18,15.10
2010,05,22,14,19,15.10
2010,05,22,14,20,15.00
2010,05,22,14,21,15.00
2010,05,22,14,22,15.00
2010,05,22,14,23,15.00
2010,05,22,14,24,15.00
2010,05,22,14,25,15.00
2010,05,22,14,26,15.00
2010,05,22,14,27,15.00
2010,05,22,14,28,15.00
2010,05,22,14,29,15.20
2010,05,22,14,30,15.20
2010,05,22,14,31,15.10
2010,05,22,14,32,15.20
2010,05,22,14,33,15.20
2010,05,22,14,34,15.40
2010,05,22,14,35,15.50
2010,05,22,14,36,15.60
2010,05,22,14,37,15.70
2010,05,22,14,38,15.70
2010,05,22,14,39,15.80
2010,05,22,14,40,15.80
2010,05,22,14,41,15.90
2010,05,22,14,42,15.90
2010,05,22,14,43,15.90
2010,05,22,14,44,15.70
2010,05,22,14,45,15.60
2010,05,22,14,46,15.50
2010,05,22,14,47,15.40
2010,05,22,14,48,15.40
2010,05,22,14,49,15.40
2010,05,22,14,50,15.30
2010,05,22,14,51,15.30
2010,05,22,14,52,15.30
2010,05,22,14,53,15.30
2010,05,22,14,54,15.50
2010,05,22,14,55,15.60
2010,05,22,14,56,15.70
2010,05,22,14,57,15.70
2010,05,22,14,58,15.80
2010,05,22,14,59,15.90
2010,05,22,15,00,15.90
2010,05,22,15,01,15.90
2010,05,22,15,02,16.00
2010,05,22,15,03,16.10
2010,05,22,15,04,16.00
2010,05,22,15,05,16.00
2010,05,22,15,06,15.90
2010,05,22,15,07,15.90
2010,05,22,15,08,15.90
2010,05,22,15,09,15.90
2010,05,22,15,10,15.90
2010,05,22,15,11,15.80
2010,05,22,15,12,15.70
2010,05,22,15,13,15.70
2010,05,22,15,14,15.60
2010,05,22,15,15,15.50
2010,05,22,15,16,15.40
2010,05,22,15,17,15.40
2010,05,22,15,18,15.40
2010,05,22,15,19,15.30
2010,05,22,15,20,15.40
2010,05,22,15,21,15.40
2010,05,22,15,22,15.50
2010,05,22,15,23,15.40
2010,05,22,15,24,15.40
2010,05,22,15,25,15.30
2010,05,22,15,26,15.20
2010,05,22,15,27,15.20
2010,05,22,15,28,15.20
2010,05,22,15,29,15.30
2010,05,22,15,30,15.30
2010,05,22,15,31,15.30
2010,05,22,15,32,15.30
2010,05,22,15,33,15.40
2010,05,22,15,34,15.40
2010,05,22,15,35,15.40
2010,05,22,15,36,15.40
2010,05,22,15,37,15.40
2010,05,22,15,38,15.30
2010,05,22,15,39,15.30
2010,05,22,15,40,15.30
2010,05,22,15,41,15.20
2010,05,22,15,42,15.20
2010,05,22,15,43,15.10
2010,05,22,15,44,15.00
2010,05,22,15,45,15.00
2010,05,22,15,46,15.00
2010,05,22,15,47,15.00
2010,05,22,15,48,15.00
2010,05,22,15,49,14.90
2010,05,22,15,50,14.80
2010,05,22,15,51,14.80
2010,05,22,15,52,14.80
2010,05,22,15,53,14.70
2010,05,22,15,54,14.70
2010,05,22,15,55,14.70
2010,05,22,15,56,14.70
2010,05,22,15,57,14.60
2010,05,22,15,58,14.60
2010,05,22,15,59,14.50
2010,05,22,16,00,14.50
2010,05,22,16,01,14.50
2010,05,22,16,02,14.40
2010,05,22,16,03,14.40
2010,05,22,16,04,14.40
2010,05,22,16,05,14.40
2010,05,22,16,06,14.50
2010,05,22,16,07,14.50
2010,05,22,16,08,14.50
2010,05,22,16,09,14.40
2010,05,22,16,10,14.30
2010,05,22,16,11,14.30
2010,05,22,16,12,14.20
2010,05,22,16,13,14.20
2010,05,22,16,14,14.20
2010,05,22,16,15,14.20
2010,05,22,16,16,14.10
2010,05,22,16,17,14.10
2010,05,22,16,18,14.10
2010,05,22,16,19,14.10
2010,05,22,16,20,14.10
2010,05,22,16,21,14.10
2010,05,22,16,22,14.10
2010,05,22,16,23,14.10
2010,05,22,16,24,14.10
2010,05,22,16,25,14.00
2010,05,22,16,26,14.00
2010,05,22,16,27,13.90
2010,05,22,16,28,13.90
2010,05,22,16,29,13.80
2010,05,22,16,30,13.80
2010,05,22,16,31,13.80
2010,05,22,16,32,13.70
2010,05,22,16,33,13.70
2010,05,22,16,34,13.70
2010,05,22,16,35,13.80
2010,05,22,16,36,13.80
2010,05,22,16,37,13.80
2010,05,22,16,38,13.80
2010,05,22,16,39,13.90
2010,05,22,16,40,13.90
2010,05,22,16,41,13.90
2010,05,22,16,42,13.90
2010,05,22,16,43,14.00
2010,05,22,16,44,14.00
2010,05,22,16,45,14.00
2010,05,22,16,46,13.90
2010,05,22,16,47,13.80
2010,05,22,16,48,13.70
2010,05,22,16,49,13.70
2010,05,22,16,50,13.70
2010,05,22,16,51,13.60
2010,05,22,16,52,13.60
2010,05,22,16,53,13.50
2010,05,22,16,54,13.50
2010,05,22,16,55,13.50
2010,05,22,16,56,13.50
2010,05,22,16,57,13.50
2010,05,22,16,58,13.50
2010,05,22,16,59,13.50
2010,05,22,17,00,13.50
2010,05,22,17,01,13.40
2010,05,22,17,02,13.40
2010,05,22,17,03,13.40
2010,05,22,17,04,13.30
2010,05,22,17,05,13.30
2010,05,22,17,06,13.20
2010,05,22,17,07,13.10
2010,05,22,17,08,13.10
2010,05,22,17,09,13.00
2010,05,22,17,10,13.00
2010,05,22,17,11,13.00
2010,05,22,17,12,13.00
2010,05,22,17,13,12.90
2010,05,22,17,14,12.90
2010,05,22,17,15,12.90
2010,05,22,17,16,12.80
2010,05,22,17,17,12.80
2010,05,22,17,18,12.80
2010,05,22,17,19,12.80
2010,05,22,17,20,12.80
2010,05,22,17,21,12.80
2010,05,22,17,22,12.80
2010,05,22,17,23,12.80
2010,05,22,17,24,12.80
2010,05,22,17,25,12.80
2010,05,22,17,26,12.80
2010,05,22,17,27,12.70
2010,05,22,17,28,12.70
2010,05,22,17,29,12.70
2010,05,22,17,30,12.70
2010,05,22,17,31,12.70
2010,05,22,17,32,12.70
2010,05,22,17,33,12.60
2010,05,22,17,34,12.50
2010,05,22,17,35,12.50
2010,05,22,17,36,12.50
2010,05,22,17,37,12.40
2010,05,22,17,38,12.40
2010,05,22,17,39,12.40
2010,05,22,17,40,12.40
2010,05,22,17,41,12.30
2010,05,22,17,42,12.40
2010,05,22,17,43,12.40
2010,05,22,17,44,12.40
2010,05,22,17,45,12.40